Weather History for West Palm Beach, FL

Change the Weather History Date:

Sunday, March 25, 2012

  Actual Average Record
Temperature  
Mean Temperature 76 °F 71 °F  
Max Temperature 85 °F 79 °F 91 °F (1952)
Min Temperature 66 °F 63 °F 42 °F (1915)
Degree Days  
Heating Degree Days 0 0  
Month to date heating degree days 3 22  
Since 1 July heating degree days 112 227  
Cooling Degree Days 11 7  
Month to date cooling degree days 223 151  
Year to date cooling degree days 539 386  
Growing Degree Days 27 (Base 50)    
Moisture  
Dew Point 64 °F    
Average Humidity 71    
Maximum Humidity 90    
Minimum Humidity 51    
Precipitation  
Precipitation 0.00 in 0.15 in 4.15 in (1970)
Month to date precipitation 1.75 3.71  
Year to date precipitation 5.95 9.66  
Snow  
Snow 0.00 in - - ()
Month to date snowfall 0.0  
Since 1 July snowfall 0.0  
Snow Depth 0.00 in    
Sea Level Pressure  
Sea Level Pressure 29.88 in    
Wind  
Wind Speed 12 mph (WSW)    
Max Wind Speed 24 mph    
Max Gust Speed 33 mph    
Visibility 10 miles    
Events Thunderstorm    
T = Trace of Precipitation, MM = Missing Value Source: NWS Daily Summary

Daily Weather History Graph

Daily Weather History Graph

Search for Another Location

Airport:

Trip Planner

Search our weather history database for the weather conditions in past years. The results will help you decide how hot, cold, wet, or windy it might be!

Date:

Astronomy

Mar. 25, 2012 Rise Set
Actual Time 7:18 AM EDT 7:34 PM EDT
Civil Twilight 6:55 AM EDT 7:57 PM EDT
Nautical Twilight 6:28 AM EDT 8:24 PM EDT
Astronomical Twilight 6:00 AM EDT 8:52 PM EDT
Moon 8:50 AM EDT (3/25) 10:25 PM EDT (3/25)
Length of Visible Light 13h 02m
Length of Day
12h 16m
Waxing Crescent, 8% of the Moon is Illuminated
Mar 25
Waxing Crescent
Mar 30
First Quarter
Apr 6
Full
Apr 13
Last Quarter
Apr 21
New

Hourly Weather History & Observations

Time (EDT) Temp. Heat Index Dew Point Humidity Pressure Visibility Wind Dir Wind Speed Gust Speed Precip Events Conditions
12:53 AM 73.9 °F - 64.0 °F 71% 29.97 in 10.0 mi SSW 8.1 mph - N/A   Mostly Cloudy
1:53 AM 72.0 °F - 64.9 °F 78% 29.97 in 10.0 mi SW 5.8 mph - N/A   Mostly Cloudy
2:53 AM 72.0 °F - 66.0 °F 81% 29.94 in 10.0 mi SSW 6.9 mph - N/A   Mostly Cloudy
3:53 AM 71.1 °F - 66.0 °F 84% 29.93 in 10.0 mi SSW 6.9 mph - N/A   Clear
4:53 AM 71.1 °F - 66.0 °F 84% 29.92 in 10.0 mi SSW 8.1 mph - N/A   Partly Cloudy
5:53 AM 70.0 °F - 66.0 °F 87% 29.92 in 10.0 mi SW 6.9 mph - N/A   Partly Cloudy
6:53 AM 70.0 °F - 66.0 °F 87% 29.91 in 10.0 mi SSW 6.9 mph - N/A   Scattered Clouds
7:53 AM 71.1 °F - 66.9 °F 87% 29.92 in 10.0 mi SSW 8.1 mph - N/A   Mostly Cloudy
8:53 AM 75.0 °F - 66.9 °F 76% 29.94 in 10.0 mi WSW 11.5 mph 19.6 mph N/A   Mostly Cloudy
9:53 AM 77.0 °F - 66.9 °F 71% 29.92 in 10.0 mi SW 15.0 mph 24.2 mph N/A   Mostly Cloudy
10:53 AM 79.0 °F - 66.0 °F 64% 29.91 in 10.0 mi WSW 15.0 mph 23.0 mph N/A   Mostly Cloudy
11:04 AM 78.8 °F - 64.4 °F 61% 29.91 in 10.0 mi WSW 19.6 mph 23.0 mph N/A   Mostly Cloudy
11:53 AM 80.1 °F 81.7 °F 64.0 °F 58% 29.91 in 10.0 mi WSW 15.0 mph 20.7 mph N/A   Mostly Cloudy
12:07 PM 82.4 °F 83.9 °F 64.4 °F 54% 29.91 in 10.0 mi WSW 16.1 mph 20.7 mph N/A   Mostly Cloudy
12:53 PM 82.9 °F 84.4 °F 64.0 °F 53% 29.90 in 10.0 mi WSW 16.1 mph 23.0 mph N/A   Mostly Cloudy
1:53 PM 82.0 °F 83.1 °F 63.0 °F 52% 29.86 in 10.0 mi WSW 13.8 mph 23.0 mph N/A   Mostly Cloudy
2:53 PM 82.9 °F 84.4 °F 64.0 °F 53% 29.84 in 10.0 mi WSW 19.6 mph 27.6 mph N/A   Mostly Cloudy
3:22 PM 82.4 °F 84.6 °F 66.2 °F 58% 29.83 in 10.0 mi SSW 18.4 mph 27.6 mph N/A Thunderstorm Thunderstorm
3:53 PM 84.0 °F 85.4 °F 64.0 °F 51% 29.82 in 10.0 mi WSW 17.3 mph 27.6 mph N/A Thunderstorm Thunderstorm
4:12 PM 82.4 °F 83.4 °F 62.6 °F 51% 29.81 in 10.0 mi WSW 16.1 mph 23.0 mph N/A   Mostly Cloudy
4:53 PM 82.9 °F 84.0 °F 63.0 °F 51% 29.81 in 10.0 mi West 15.0 mph 25.3 mph N/A   Mostly Cloudy
5:53 PM 82.0 °F 83.0 °F 62.1 °F 51% 29.80 in 10.0 mi WSW 17.3 mph 29.9 mph N/A   Mostly Cloudy
6:53 PM 81.0 °F 82.5 °F 64.0 °F 56% 29.81 in 10.0 mi WSW 17.3 mph 26.5 mph N/A   Mostly Cloudy
7:53 PM 78.1 °F - 61.0 °F 56% 29.82 in 10.0 mi West 12.7 mph - N/A   Mostly Cloudy
8:53 PM 75.9 °F - 60.1 °F 58% 29.84 in 10.0 mi West 10.4 mph - N/A   Mostly Cloudy
9:53 PM 73.9 °F - 57.9 °F 57% 29.86 in 10.0 mi West 10.4 mph - N/A   Mostly Cloudy
10:53 PM 71.1 °F - 59.0 °F 66% 29.89 in 10.0 mi West 9.2 mph - N/A   Scattered Clouds
11:53 PM 69.1 °F - 59.0 °F 70% 29.90 in 10.0 mi West 8.1 mph - N/A   Scattered Clouds